TSO124 UHWW-UUDD

Flight info

Callsign TSO124
Flight time N/A
Altitude 36000
Route UHWW/07R K0904F360 DOLM2F DOLMA B356 TD B355 HAB L168 UNILA N742 UHT T791 KTL T187 ROMTA ROMT3L UUDD/31L
Aircraft B773/H-L/L

Departure

Time 2026-04-26 13:10
Airport Vladivostok International Airport (UHWW)

Arrival

Time N/A
Airport Domodedovo International Airport (UUDD)
Time Latitude Longitude Altitude Speed Heading
2026-04-26 12:48 43.39728 132.16475 38 ft 0 kts 151°
2026-04-26 12:57 43.39728 132.16474 38 ft 1 kts 151°
2026-04-26 12:58 43.39760 132.16451 37 ft 3 kts 159°
2026-04-26 12:58 43.39778 132.16444 35 ft 3 kts 175°
2026-04-26 12:58 43.39795 132.16444 38 ft 3 kts 196°
2026-04-26 12:58 43.39811 132.16453 37 ft 3 kts 218°
2026-04-26 12:59 43.39824 132.16470 37 ft 3 kts 236°
2026-04-26 12:59 43.39834 132.16492 38 ft 3 kts 241°
2026-04-26 12:59 43.39844 132.16517 36 ft 3 kts 241°
2026-04-26 12:59 43.39848 132.16526 36 ft 0 kts 241°
2026-04-26 13:01 43.39844 132.16518 36 ft 5 kts 241°
2026-04-26 13:02 43.39796 132.16400 38 ft 13 kts 241°
2026-04-26 13:02 43.39751 132.16282 38 ft 15 kts 249°
2026-04-26 13:02 43.39795 132.16180 38 ft 14 kts 330°
2026-04-26 13:02 43.39877 132.16111 38 ft 13 kts 316°
2026-04-26 13:03 43.39883 132.16037 38 ft 8 kts 251°
2026-04-26 13:03 43.39852 132.15957 37 ft 10 kts 241°
2026-04-26 13:03 43.39814 132.15863 37 ft 12 kts 241°
2026-04-26 13:03 43.39770 132.15754 37 ft 14 kts 241°
2026-04-26 13:04 43.39720 132.15632 37 ft 15 kts 241°
2026-04-26 13:04 43.39666 132.15496 38 ft 17 kts 241°
2026-04-26 13:04 43.39607 132.15351 38 ft 18 kts 241°
2026-04-26 13:04 43.39548 132.15203 38 ft 18 kts 241°
2026-04-26 13:05 43.39490 132.15058 38 ft 18 kts 241°
2026-04-26 13:05 43.39431 132.14910 37 ft 18 kts 241°
2026-04-26 13:05 43.39371 132.14762 37 ft 18 kts 240°
2026-04-26 13:05 43.39308 132.14610 37 ft 19 kts 240°
2026-04-26 13:06 43.39244 132.14451 38 ft 19 kts 241°
2026-04-26 13:06 43.39180 132.14291 38 ft 19 kts 241°
2026-04-26 13:06 43.39116 132.14133 38 ft 19 kts 241°
2026-04-26 13:06 43.39051 132.13974 38 ft 19 kts 240°
2026-04-26 13:07 43.38987 132.13818 38 ft 19 kts 241°
2026-04-26 13:07 43.38923 132.13659 38 ft 19 kts 241°
2026-04-26 13:07 43.38859 132.13500 38 ft 19 kts 241°
2026-04-26 13:07 43.38795 132.13341 38 ft 19 kts 240°
2026-04-26 13:08 43.38772 132.13217 38 ft 12 kts 292°
2026-04-26 13:08 43.38818 132.13161 38 ft 6 kts 330°
2026-04-26 13:08 43.38861 132.13128 38 ft 8 kts 330°
2026-04-26 13:08 43.38919 132.13106 38 ft 10 kts
2026-04-26 13:09 43.38969 132.13172 37 ft 11 kts 62°
2026-04-26 13:09 43.38984 132.13208 37 ft 0 kts 60°
2026-04-26 13:09 43.39006 132.13263 38 ft 21 kts 61°
2026-04-26 13:10 43.39218 132.13784 39 ft 106 kts 60°
2026-04-26 13:10 43.39698 132.15003 120 ft 173 kts 61°
2026-04-26 13:10 43.40263 132.16467 1020 ft 176 kts 60°
2026-04-26 13:10 43.40836 132.17964 2093 ft 171 kts 59°
2026-04-26 13:11 43.41406 132.19464 2602 ft 190 kts 56°
2026-04-26 13:11 43.42117 132.21053 3055 ft 201 kts 56°
2026-04-26 13:11 43.42831 132.22794 3534 ft 221 kts 57°
2026-04-26 13:11 43.43596 132.24731 3971 ft 237 kts 58°
2026-04-26 13:12 43.44373 132.26769 4688 ft 245 kts 58°
2026-04-26 13:12 43.45233 132.28858 5242 ft 257 kts 56°
2026-04-26 13:12 43.46139 132.31031 5927 ft 267 kts 57°
2026-04-26 13:12 43.47056 132.33271 6608 ft 276 kts 58°
2026-04-26 13:13 43.48004 132.35609 7269 ft 284 kts 58°
2026-04-26 13:13 43.49053 132.37922 7826 ft 286 kts 44°
2026-04-26 13:13 43.50644 132.39496 8282 ft 284 kts 21°
2026-04-26 13:13 43.52438 132.40742 8824 ft 293 kts 24°
2026-04-26 13:14 43.54232 132.42115 9558 ft 298 kts 24°
2026-04-26 13:14 43.56052 132.43547 10221 ft 305 kts 25°
2026-04-26 13:14 43.57948 132.45047 10530 ft 325 kts 25°
2026-04-26 13:14 43.59980 132.46656 10726 ft 348 kts 26°
2026-04-26 13:15 43.62121 132.48359 10900 ft 372 kts 26°
2026-04-26 13:15 43.64414 132.50186 11319 ft 387 kts 26°
2026-04-26 13:15 43.66771 132.52075 11932 ft 397 kts 27°
2026-04-26 13:15 43.68366 132.53355 12386 ft 402 kts 27°
2026-04-26 13:16 43.71632 132.55974 13395 ft 410 kts 27°
2026-04-26 13:16 43.74120 132.57969 14071 ft 417 kts 27°
2026-04-26 13:16 43.76648 132.59997 14738 ft 422 kts 27°
2026-04-26 13:16 43.79170 132.62021 15393 ft 428 kts 27°
2026-04-26 13:17 43.84104 132.66818 16476 ft 444 kts 39°
2026-04-26 13:17 43.86394 132.69732 17188 ft 449 kts 41°
2026-04-26 13:18 43.90974 132.75744 18474 ft 460 kts 41°
2026-04-26 13:18 43.93338 132.78770 18990 ft 465 kts 40°
2026-04-26 13:18 43.98166 132.84807 20127 ft 474 kts 40°
2026-04-26 13:19 44.00637 132.87866 20657 ft 479 kts 39°
2026-04-26 13:19 44.03145 132.90969 21168 ft 485 kts 39°
2026-04-26 13:19 44.05675 132.94105 21682 ft 490 kts 39°
2026-04-26 13:19 44.08227 132.97275 22198 ft 495 kts 39°
2026-04-26 13:20 44.10805 133.00486 22688 ft 500 kts 40°
2026-04-26 13:20 44.13403 133.03725 23201 ft 504 kts 40°
2026-04-26 13:20 44.15141 133.05895 23522 ft 507 kts 40°
2026-04-26 13:20 44.18674 133.10307 24084 ft 513 kts 40°
2026-04-26 13:21 44.21340 133.13533 24528 ft 515 kts 37°
2026-04-26 13:21 44.23236 133.15623 24830 ft 516 kts 34°
2026-04-26 13:21 44.27073 133.19562 25417 ft 518 kts 32°
2026-04-26 13:21 44.30015 133.22489 25824 ft 521 kts 32°
2026-04-26 13:22 44.32969 133.25436 26241 ft 524 kts 32°
2026-04-26 13:22 44.35938 133.28433 26653 ft 527 kts 33°
2026-04-26 13:22 44.38906 133.31466 27054 ft 530 kts 33°
2026-04-26 13:22 44.41884 133.34540 27450 ft 533 kts 33°
2026-04-26 13:23 44.44829 133.37599 27814 ft 535 kts 33°
2026-04-26 13:23 44.47823 133.40716 28182 ft 538 kts 34°
2026-04-26 13:23 44.50831 133.43852 28547 ft 540 kts 33°
2026-04-26 13:23 44.53853 133.47003 28865 ft 543 kts 33°
2026-04-26 13:24 44.55862 133.49099 29069 ft 544 kts 34°
2026-04-26 13:24 44.59928 133.53346 29622 ft 544 kts 33°
2026-04-26 13:24 44.62956 133.56514 30122 ft 542 kts 34°
2026-04-26 13:24 44.65974 133.59676 30523 ft 541 kts 33°
2026-04-26 13:25 44.68951 133.62796 30883 ft 541 kts 33°
2026-04-26 13:25 44.71963 133.65956 31207 ft 541 kts 33°
2026-04-26 13:25 44.74978 133.69125 31539 ft 541 kts 33°
2026-04-26 13:25 44.77987 133.72292 31861 ft 541 kts 34°
2026-04-26 13:26 44.80998 133.75465 32182 ft 541 kts 34°
2026-04-26 13:26 44.84009 133.78644 32488 ft 541 kts 34°
2026-04-26 13:26 44.87016 133.81823 32809 ft 540 kts 34°
2026-04-26 13:26 44.90025 133.85005 33116 ft 540 kts 34°
2026-04-26 13:27 44.93032 133.88180 33393 ft 540 kts 33°
2026-04-26 13:27 44.96034 133.91237 33671 ft 539 kts 32°
2026-04-26 13:27 44.99107 133.94283 33955 ft 539 kts 31°
2026-04-26 13:27 45.02182 133.97301 34191 ft 538 kts 31°
2026-04-26 13:28 45.05254 134.00320 34438 ft 538 kts 31°
2026-04-26 13:28 45.08319 134.03349 34681 ft 537 kts 32°
2026-04-26 13:28 45.11373 134.06388 34935 ft 536 kts 32°
2026-04-26 13:28 45.14413 134.09428 35174 ft 535 kts 32°
2026-04-26 13:29 45.17452 134.12477 35355 ft 535 kts 32°
2026-04-26 13:29 45.23503 134.18566 35575 ft 539 kts 32°
2026-04-26 13:30 45.29632 134.24748 35796 ft 541 kts 32°
2026-04-26 13:30 45.32707 134.27854 35899 ft 543 kts 32°
2026-04-26 13:30 45.35787 134.30970 35958 ft 544 kts 32°
2026-04-26 13:31 45.41920 134.37188 36002 ft 545 kts 32°
2026-04-26 13:31 45.48081 134.43452 35998 ft 544 kts 32°
2026-04-26 13:32 45.54235 134.49724 36014 ft 543 kts 32°
2026-04-26 13:32 45.60379 134.56002 35997 ft 543 kts 32°
2026-04-26 13:33 45.65478 134.61226 35999 ft 543 kts 32°
2026-04-26 13:33 45.72604 134.68549 36006 ft 542 kts 33°
2026-04-26 13:34 45.77693 134.73793 36001 ft 542 kts 33°
2026-04-26 13:34 45.83810 134.80110 35996 ft 542 kts 33°
2026-04-26 13:35 45.90280 134.85365 35990 ft 530 kts 15°
2026-04-26 13:35 45.98509 134.87966 35995 ft 514 kts 358°
2026-04-26 13:36 46.05652 134.88737 36002 ft 516 kts 358°
2026-04-26 13:36 46.11609 134.89469 36002 ft 518 kts 359°
2026-04-26 13:37 46.18798 134.90420 36003 ft 520 kts 359°
2026-04-26 13:37 46.27176 134.91550 35985 ft 521 kts 359°
2026-04-26 13:38 46.33229 134.92365 35990 ft 521 kts 359°
2026-04-26 13:38 46.40397 134.93328 35991 ft 521 kts 359°
2026-04-26 13:39 46.47619 134.94300 35989 ft 521 kts 359°
2026-04-26 13:39 46.54825 134.95272 35992 ft 520 kts 359°
2026-04-26 13:40 46.62029 134.96247 35984 ft 519 kts 359°
2026-04-26 13:40 46.69164 134.97215 35986 ft 518 kts 359°
2026-04-26 13:41 46.76343 134.98192 35985 ft 517 kts 360°
2026-04-26 13:41 46.83504 134.99164 35973 ft 517 kts 359°
2026-04-26 13:42 46.90660 135.00063 35982 ft 516 kts 359°
2026-04-26 13:42 46.97811 135.00933 35975 ft 515 kts 359°
2026-04-26 13:43 47.04905 135.01806 35980 ft 515 kts 359°
2026-04-26 13:43 47.12053 135.02697 35982 ft 515 kts 359°
2026-04-26 13:44 47.19199 135.03594 35981 ft 515 kts 359°
2026-04-26 13:44 47.26341 135.04492 35979 ft 515 kts 360°
2026-04-26 13:45 47.33441 135.05388 35976 ft 515 kts 360°
2026-04-26 13:45 47.40580 135.06289 35972 ft 515 kts 360°
2026-04-26 13:46 47.47721 135.07193 35969 ft 515 kts 360°
2026-04-26 13:46 47.54804 135.08091 35976 ft 515 kts
2026-04-26 13:47 47.61943 135.09001 35971 ft 515 kts
2026-04-26 13:47 47.69071 135.09911 35975 ft 514 kts
2026-04-26 13:48 47.76209 135.10826 35974 ft 514 kts
2026-04-26 13:48 47.83290 135.11736 35975 ft 514 kts
2026-04-26 13:49 47.90417 135.12663 35976 ft 514 kts
2026-04-26 13:49 47.97539 135.13591 35975 ft 514 kts
2026-04-26 13:50 48.04667 135.14514 35976 ft 514 kts
2026-04-26 13:50 48.11786 135.15436 35974 ft 513 kts
2026-04-26 13:51 48.18856 135.16356 35985 ft 513 kts
2026-04-26 13:51 48.25920 135.17278 35995 ft 512 kts
2026-04-26 13:52 48.33058 135.18212 35984 ft 512 kts
2026-04-26 13:52 48.40149 135.19143 36000 ft 511 kts
2026-04-26 13:53 48.47179 135.20068 35997 ft 510 kts
2026-04-26 13:53 48.54077 135.19452 35998 ft 490 kts 335°
2026-04-26 13:53 48.57128 135.17301 36008 ft 481 kts 322°
2026-04-26 13:54 48.59760 135.14259 35994 ft 472 kts 312°
2026-04-26 13:54 48.64572 135.07445 36006 ft 477 kts 313°
2026-04-26 13:55 48.71135 134.98349 36007 ft 484 kts 313°
2026-04-26 13:56 48.79466 134.86914 36006 ft 488 kts 314°
2026-04-26 13:56 48.84492 134.79987 36009 ft 489 kts 314°
2026-04-26 13:57 48.89488 134.73078 36002 ft 488 kts 314°
2026-04-26 13:57 48.94504 134.66122 36002 ft 487 kts 314°
2026-04-26 13:58 48.99493 134.59177 36004 ft 485 kts 314°
2026-04-26 13:58 49.04465 134.52234 36009 ft 484 kts 314°
2026-04-26 13:59 49.09496 134.45517 36005 ft 486 kts 320°
2026-04-26 13:59 49.15152 134.39811 36021 ft 487 kts 323°
2026-04-26 14:00 49.26516 134.28422 36027 ft 489 kts 323°
2026-04-26 14:01 49.32155 134.22678 36028 ft 491 kts 323°
2026-04-26 14:01 49.37839 134.16873 36036 ft 492 kts 323°
2026-04-26 14:02 49.43544 134.11034 36041 ft 493 kts 323°
2026-04-26 14:02 49.49252 134.05180 36037 ft 494 kts 323°
2026-04-26 14:03 49.54971 133.99314 36029 ft 494 kts 323°
2026-04-26 14:03 49.60652 133.93474 36039 ft 494 kts 323°
2026-04-26 14:04 49.66362 133.87585 36040 ft 494 kts 323°
2026-04-26 14:04 49.72073 133.81678 36042 ft 494 kts 323°
2026-04-26 14:05 49.77775 133.75760 36039 ft 493 kts 323°
2026-04-26 14:05 49.83435 133.69872 36039 ft 493 kts 323°
2026-04-26 14:06 49.89117 133.63942 36039 ft 493 kts 324°
2026-04-26 14:06 49.94798 133.57996 36037 ft 492 kts 324°
2026-04-26 14:07 50.00474 133.52037 36036 ft 492 kts 324°
2026-04-26 14:07 50.06111 133.46103 36038 ft 492 kts 324°
2026-04-26 14:08 50.11775 133.40109 36041 ft 493 kts 324°
2026-04-26 14:08 50.17425 133.34049 36039 ft 493 kts 323°
2026-04-26 14:09 50.23068 133.27965 36041 ft 493 kts 323°
2026-04-26 14:09 50.28680 133.21906 36040 ft 494 kts 324°
2026-04-26 14:10 50.34335 133.15787 36039 ft 494 kts 324°
2026-04-26 14:10 50.39987 133.09656 36042 ft 494 kts 324°
2026-04-26 14:11 50.48455 133.00433 36039 ft 494 kts 324°
2026-04-26 14:11 50.54057 132.94310 36043 ft 494 kts 324°
2026-04-26 14:12 50.59687 132.88136 36042 ft 493 kts 324°
2026-04-26 14:12 50.65318 132.81944 36042 ft 493 kts 324°
2026-04-26 14:13 50.73749 132.72639 36037 ft 493 kts 324°
2026-04-26 14:14 50.79324 132.66462 36037 ft 493 kts 324°
2026-04-26 14:14 50.84934 132.60228 36039 ft 493 kts 324°
2026-04-26 14:15 50.90539 132.53981 36036 ft 493 kts 324°
2026-04-26 14:15 50.96147 132.47712 36031 ft 493 kts 324°
2026-04-26 14:16 51.01705 132.41480 36034 ft 493 kts 324°
2026-04-26 14:16 51.07301 132.35187 36038 ft 493 kts 324°
2026-04-26 14:17 51.12892 132.28878 36037 ft 493 kts 324°
2026-04-26 14:17 51.18477 132.22560 36031 ft 493 kts 324°
2026-04-26 14:18 51.23944 132.16099 36037 ft 492 kts 322°
2026-04-26 14:18 51.29336 132.09374 36033 ft 492 kts 322°
2026-04-26 14:19 51.34731 132.02645 36038 ft 491 kts 322°
2026-04-26 14:19 51.40126 131.95954 36043 ft 490 kts 323°
2026-04-26 14:20 51.45478 131.89317 36043 ft 489 kts 323°
2026-04-26 14:20 51.50854 131.82628 36041 ft 489 kts 323°
2026-04-26 14:21 51.56219 131.75930 36045 ft 488 kts 323°
2026-04-26 14:21 51.61582 131.69212 36047 ft 489 kts 323°
2026-04-26 14:22 51.66943 131.62478 36049 ft 489 kts 323°
2026-04-26 14:22 51.72268 131.55769 36052 ft 490 kts 323°
2026-04-26 14:23 51.77633 131.48985 36054 ft 490 kts 323°
2026-04-26 14:23 51.82991 131.42190 36054 ft 490 kts 323°
2026-04-26 14:24 51.88352 131.35372 36054 ft 490 kts 323°
2026-04-26 14:24 51.93670 131.28585 36050 ft 490 kts 323°
2026-04-26 14:25 51.99017 131.21739 36047 ft 490 kts 323°
2026-04-26 14:25 52.04358 131.14881 36044 ft 489 kts 323°
2026-04-26 14:26 52.09685 131.08018 36045 ft 488 kts 323°
2026-04-26 14:26 52.14967 131.01192 36043 ft 488 kts 323°
2026-04-26 14:27 52.20276 130.94309 36039 ft 487 kts 323°
2026-04-26 14:27 52.25570 130.87417 36039 ft 487 kts 323°
2026-04-26 14:28 52.30861 130.80515 36046 ft 486 kts 323°
2026-04-26 14:28 52.36102 130.73653 36040 ft 486 kts 323°
2026-04-26 14:29 52.41372 130.66731 36036 ft 486 kts 323°
2026-04-26 14:29 52.46641 130.59791 36050 ft 485 kts 323°
2026-04-26 14:30 52.51899 130.52845 36042 ft 486 kts 323°
2026-04-26 14:30 52.57120 130.45918 36050 ft 485 kts 323°
2026-04-26 14:31 52.62371 130.38934 36039 ft 485 kts 323°
2026-04-26 14:31 52.67615 130.31939 36044 ft 485 kts 323°
2026-04-26 14:32 52.72853 130.24927 36042 ft 485 kts 323°
2026-04-26 14:32 52.78054 130.17944 36050 ft 485 kts 323°
2026-04-26 14:33 52.83282 130.10902 36052 ft 485 kts 323°
2026-04-26 14:33 52.88505 130.03841 36054 ft 485 kts 324°
2026-04-26 14:34 52.93724 129.96767 36056 ft 485 kts 324°
2026-04-26 14:34 52.98903 129.89721 36058 ft 485 kts 324°
2026-04-26 14:35 53.04111 129.82608 36062 ft 484 kts 324°
2026-04-26 14:35 53.09305 129.75491 36072 ft 484 kts 323°
2026-04-26 14:36 53.14494 129.68357 36062 ft 483 kts 323°
2026-04-26 14:36 53.19639 129.61262 36073 ft 483 kts 323°
2026-04-26 14:37 53.24806 129.54114 36075 ft 482 kts 323°
2026-04-26 14:37 53.29966 129.46952 36082 ft 482 kts 323°
2026-04-26 14:38 53.35121 129.39772 36079 ft 482 kts 323°
2026-04-26 14:38 53.40267 129.32584 36082 ft 482 kts 323°
2026-04-26 14:39 53.45370 129.25431 36084 ft 481 kts 323°
2026-04-26 14:39 53.50497 129.18221 36084 ft 481 kts 323°
2026-04-26 14:40 53.55619 129.10997 36081 ft 480 kts 323°
2026-04-26 14:40 53.60724 129.03770 36086 ft 479 kts 323°
2026-04-26 14:41 53.65779 128.96591 36084 ft 478 kts 323°
2026-04-26 14:41 53.70859 128.89354 36082 ft 478 kts 323°
2026-04-26 14:42 53.75927 128.82107 36088 ft 477 kts 322°
2026-04-26 14:42 53.80989 128.74847 36079 ft 477 kts 322°
2026-04-26 14:43 53.86001 128.67633 36083 ft 476 kts 322°
2026-04-26 14:43 53.91043 128.60357 36073 ft 476 kts 322°
2026-04-26 14:44 53.96074 128.53067 36074 ft 475 kts 322°
2026-04-26 14:44 54.01095 128.45770 36073 ft 475 kts 322°
2026-04-26 14:45 54.06106 128.38464 36071 ft 474 kts 322°
2026-04-26 14:45 54.11081 128.31193 36074 ft 474 kts 322°
2026-04-26 14:46 54.16080 128.23874 36074 ft 474 kts 322°
2026-04-26 14:46 54.21072 128.16542 36068 ft 473 kts 321°
2026-04-26 14:47 54.26020 128.09247 36066 ft 472 kts 321°
2026-04-26 14:47 54.30991 128.01895 36078 ft 472 kts 321°
2026-04-26 14:48 54.35946 127.94541 36078 ft 472 kts 321°
2026-04-26 14:48 54.40903 127.87159 36076 ft 471 kts 321°
2026-04-26 14:49 54.45846 127.79775 36072 ft 471 kts 321°
2026-04-26 14:49 54.50744 127.72434 36074 ft 470 kts 321°
2026-04-26 14:50 54.55665 127.65032 36079 ft 469 kts 321°
2026-04-26 14:50 54.60574 127.57625 36084 ft 469 kts 321°
2026-04-26 14:51 54.65484 127.50192 36082 ft 469 kts 321°
2026-04-26 14:51 54.70355 127.42791 36084 ft 469 kts 320°
2026-04-26 14:52 54.75250 127.35329 36089 ft 469 kts 320°
2026-04-26 14:52 54.80134 127.27860 36092 ft 469 kts 320°
2026-04-26 14:53 54.85073 127.20481 36091 ft 468 kts 322°
2026-04-26 14:53 54.90032 127.13293 36098 ft 467 kts 322°
2026-04-26 14:54 54.95012 127.06042 36100 ft 467 kts 321°
2026-04-26 14:54 54.99978 126.98747 36106 ft 467 kts 321°
2026-04-26 14:55 55.04927 126.91439 36111 ft 466 kts 321°
2026-04-26 14:55 55.09826 126.84179 36116 ft 465 kts 321°
2026-04-26 14:56 55.14755 126.76856 36123 ft 465 kts 321°
2026-04-26 14:56 55.19680 126.69507 36120 ft 465 kts 321°
2026-04-26 14:57 55.24598 126.62150 36123 ft 465 kts 321°
2026-04-26 14:57 55.29472 126.54834 36135 ft 464 kts 320°
2026-04-26 14:58 55.34364 126.47463 36143 ft 463 kts 320°
2026-04-26 14:58 55.39250 126.40061 36147 ft 463 kts 320°
2026-04-26 14:59 55.44133 126.32641 36145 ft 464 kts 320°
2026-04-26 14:59 55.48975 126.25256 36151 ft 463 kts 320°
2026-04-26 15:00 55.53846 126.17802 36156 ft 463 kts 320°
2026-04-26 15:00 55.58713 126.10332 36158 ft 464 kts 320°
2026-04-26 15:01 55.63578 126.02835 36162 ft 464 kts 320°
2026-04-26 15:01 55.68402 125.95378 36170 ft 463 kts 320°
2026-04-26 15:02 55.73253 125.87854 36171 ft 463 kts 319°
2026-04-26 15:02 55.78106 125.80302 36178 ft 463 kts 319°
2026-04-26 15:03 55.82948 125.72736 36177 ft 463 kts 319°
2026-04-26 15:03 55.87789 125.65155 36185 ft 463 kts 319°
2026-04-26 15:04 55.92580 125.57617 36194 ft 463 kts 319°
2026-04-26 15:04 55.97400 125.50008 36205 ft 462 kts 319°
2026-04-26 15:05 56.02213 125.42389 36199 ft 462 kts 319°
2026-04-26 15:05 56.07019 125.34754 36208 ft 462 kts 319°
2026-04-26 15:06 56.11789 125.27158 36215 ft 462 kts 319°
2026-04-26 15:06 56.16585 125.19497 36222 ft 462 kts 318°
2026-04-26 15:07 56.23767 125.07971 36233 ft 461 kts 318°
2026-04-26 15:07 56.28515 125.00319 36223 ft 462 kts 318°
2026-04-26 15:08 56.33287 124.92597 36234 ft 461 kts 318°
2026-04-26 15:08 56.38061 124.84855 36238 ft 461 kts 318°
2026-04-26 15:09 56.42830 124.77091 36235 ft 462 kts 317°
2026-04-26 15:09 56.47563 124.69357 36237 ft 462 kts 317°
2026-04-26 15:10 56.51555 124.62822 36243 ft 462 kts 317°
2026-04-26 15:10 56.57088 124.53732 36249 ft 462 kts 317°
2026-04-26 15:11 56.61834 124.45895 36249 ft 462 kts 317°
2026-04-26 15:11 56.66551 124.38081 36249 ft 462 kts 317°
2026-04-26 15:12 56.71290 124.30205 36254 ft 462 kts 317°
2026-04-26 15:12 56.76030 124.22296 36254 ft 462 kts 317°
2026-04-26 15:13 56.80762 124.14374 36265 ft 462 kts 317°
2026-04-26 15:13 56.85494 124.06421 36257 ft 462 kts 317°
2026-04-26 15:14 56.90226 123.98448 36259 ft 463 kts 317°
2026-04-26 15:14 56.94921 123.90498 36267 ft 463 kts 317°
2026-04-26 15:15 56.99643 123.82477 36268 ft 463 kts 317°
2026-04-26 15:15 57.04359 123.74438 36274 ft 463 kts 317°
2026-04-26 15:16 57.08273 123.67742 36276 ft 463 kts 317°
2026-04-26 15:16 57.13741 123.58330 36274 ft 463 kts 317°
2026-04-26 15:17 57.17648 123.51578 36273 ft 463 kts 316°
2026-04-26 15:17 57.23140 123.42064 36279 ft 463 kts 316°
2026-04-26 15:18 57.27798 123.33967 36287 ft 463 kts 316°
2026-04-26 15:18 57.32482 123.25787 36293 ft 463 kts 316°
2026-04-26 15:19 57.37161 123.17590 36292 ft 463 kts 316°
2026-04-26 15:19 57.41827 123.09380 36304 ft 463 kts 316°
2026-04-26 15:20 57.46457 123.01204 36301 ft 462 kts 316°
2026-04-26 15:20 57.51108 122.92963 36309 ft 462 kts 316°
2026-04-26 15:21 57.55756 122.84696 36308 ft 462 kts 316°
2026-04-26 15:21 57.60394 122.76414 36316 ft 461 kts 316°
2026-04-26 15:22 57.64990 122.68184 36311 ft 461 kts 316°
2026-04-26 15:22 57.69610 122.59876 36318 ft 461 kts 316°
2026-04-26 15:23 57.74224 122.51545 36316 ft 461 kts 316°
2026-04-26 15:23 57.78831 122.43198 36325 ft 461 kts 316°
2026-04-26 15:24 57.83401 122.34886 36318 ft 461 kts 316°
2026-04-26 15:24 57.87998 122.26498 36320 ft 461 kts 316°
2026-04-26 15:25 57.91808 122.19516 36321 ft 460 kts 316°
2026-04-26 15:25 57.97166 122.09662 36313 ft 460 kts 316°
2026-04-26 15:26 58.01706 122.01281 36323 ft 460 kts 315°
2026-04-26 15:26 58.06267 121.92829 36327 ft 460 kts 315°
2026-04-26 15:27 58.10821 121.84356 36316 ft 460 kts 315°
2026-04-26 15:27 58.15369 121.75860 36329 ft 459 kts 315°
2026-04-26 15:28 58.19883 121.67404 36329 ft 459 kts 315°
2026-04-26 15:28 58.24415 121.58875 36331 ft 459 kts 315°
2026-04-26 15:29 58.28938 121.50332 36335 ft 458 kts 315°
2026-04-26 15:30 58.37961 121.33189 36338 ft 458 kts 315°
2026-04-26 15:30 58.42437 121.24643 36334 ft 458 kts 315°
2026-04-26 15:31 58.49182 121.11692 36336 ft 458 kts 315°
2026-04-26 15:32 58.55146 121.00182 36335 ft 458 kts 315°
2026-04-26 15:32 58.60347 120.90093 36331 ft 458 kts 315°
2026-04-26 15:33 58.64806 120.81366 36334 ft 458 kts 313°
2026-04-26 15:33 58.68757 120.71792 36336 ft 457 kts 307°
2026-04-26 15:34 58.72539 120.61940 36336 ft 458 kts 307°
2026-04-26 15:34 58.76314 120.52173 36333 ft 458 kts 307°
2026-04-26 15:35 58.80134 120.42326 36351 ft 458 kts 307°
2026-04-26 15:35 58.83949 120.32476 36331 ft 458 kts 307°
2026-04-26 15:36 58.87732 120.22661 36336 ft 458 kts 307°
2026-04-26 15:36 58.91527 120.12769 36354 ft 458 kts 307°
2026-04-26 15:37 58.95321 120.02837 36350 ft 459 kts 307°
2026-04-26 15:37 58.99112 119.92873 36331 ft 459 kts 307°
2026-04-26 15:38 59.02890 119.82899 36341 ft 459 kts 307°
2026-04-26 15:38 59.06639 119.72961 36327 ft 459 kts 307°
2026-04-26 15:39 59.10401 119.62951 36341 ft 459 kts 307°
2026-04-26 15:39 59.13528 119.54586 36337 ft 459 kts 307°
2026-04-26 15:40 59.17902 119.42801 36318 ft 459 kts 307°
2026-04-26 15:40 59.21609 119.32770 36336 ft 459 kts 307°
2026-04-26 15:41 59.25336 119.22640 36344 ft 459 kts 307°
2026-04-26 15:41 59.29057 119.12488 36321 ft 459 kts 307°
2026-04-26 15:42 59.32761 119.02337 36337 ft 459 kts 306°
2026-04-26 15:42 59.36438 118.92218 36343 ft 459 kts 306°
2026-04-26 15:43 59.40130 118.82014 36345 ft 459 kts 306°
2026-04-26 15:44 59.45650 118.66671 36345 ft 458 kts 306°
2026-04-26 15:44 59.51144 118.51299 36344 ft 458 kts 306°
2026-04-26 15:45 59.56598 118.35947 36338 ft 458 kts 306°
2026-04-26 15:46 59.62052 118.20488 36341 ft 457 kts 306°
2026-04-26 15:46 59.65067 118.11896 36344 ft 457 kts 306°
2026-04-26 15:47 59.71076 117.94685 36335 ft 457 kts 306°
2026-04-26 15:48 59.74685 117.84285 36332 ft 458 kts 306°
2026-04-26 15:48 59.78280 117.73879 36331 ft 457 kts 306°
2026-04-26 15:49 59.81847 117.63508 36336 ft 457 kts 306°
2026-04-26 15:49 59.85423 117.53065 36332 ft 457 kts 306°
2026-04-26 15:50 59.88997 117.42588 36327 ft 457 kts 306°
2026-04-26 15:50 59.92534 117.32074 36326 ft 457 kts 305°
2026-04-26 15:51 59.96042 117.21521 36332 ft 456 kts 305°
2026-04-26 15:51 59.99518 117.11024 36333 ft 456 kts 305°
2026-04-26 15:52 60.03007 117.00446 36333 ft 456 kts 305°
2026-04-26 15:52 60.06488 116.89857 36338 ft 455 kts 304°
2026-04-26 15:53 60.09955 116.79259 36337 ft 455 kts 304°
2026-04-26 15:53 60.13387 116.68724 36335 ft 454 kts 304°
2026-04-26 15:54 60.16833 116.58091 36341 ft 454 kts 304°
2026-04-26 15:54 60.20274 116.47433 36335 ft 454 kts 304°
2026-04-26 15:55 60.23701 116.36763 36340 ft 454 kts 304°
2026-04-26 15:55 60.27096 116.26149 36339 ft 454 kts 304°
2026-04-26 15:56 60.30505 116.15435 36335 ft 453 kts 304°
2026-04-26 15:56 60.33901 116.04724 36335 ft 453 kts 304°
2026-04-26 15:57 60.37283 115.94001 36331 ft 453 kts 304°
2026-04-26 15:57 60.40631 115.83323 36333 ft 452 kts 304°
2026-04-26 15:58 60.43991 115.72552 36327 ft 452 kts 304°
2026-04-26 15:58 60.47342 115.61764 36331 ft 452 kts 304°
2026-04-26 15:59 60.50685 115.50951 36323 ft 452 kts 303°
2026-04-26 15:59 60.53999 115.40186 36324 ft 452 kts 303°
2026-04-26 16:00 60.57326 115.29324 36318 ft 453 kts 303°
2026-04-26 16:00 60.60643 115.18443 36313 ft 453 kts 303°
2026-04-26 16:01 60.63953 115.07534 36301 ft 453 kts 303°
2026-04-26 16:01 60.67254 114.96606 36306 ft 452 kts 303°
2026-04-26 16:02 60.70523 114.85738 36298 ft 452 kts 304°
2026-04-26 16:02 60.74280 114.75519 36297 ft 449 kts 313°
2026-04-26 16:03 60.78425 114.65984 36291 ft 449 kts 313°
2026-04-26 16:03 60.82514 114.56440 36279 ft 448 kts 313°
2026-04-26 16:04 60.86594 114.46821 36284 ft 447 kts 312°
2026-04-26 16:04 60.90661 114.37179 36285 ft 446 kts 312°
2026-04-26 16:05 60.94711 114.27535 36283 ft 446 kts 312°
2026-04-26 16:05 60.98759 114.17857 36285 ft 446 kts 312°
2026-04-26 16:06 61.02778 114.08207 36276 ft 447 kts 312°
2026-04-26 16:06 61.06818 113.98467 36277 ft 447 kts 312°
2026-04-26 16:07 61.10856 113.88687 36278 ft 447 kts 312°
2026-04-26 16:07 61.14861 113.78950 36271 ft 447 kts 312°
2026-04-26 16:08 61.18885 113.69120 36270 ft 447 kts 312°
2026-04-26 16:08 61.22899 113.59274 36270 ft 447 kts 312°
2026-04-26 16:09 61.26905 113.49404 36274 ft 446 kts 312°
2026-04-26 16:09 61.30903 113.39515 36270 ft 446 kts 312°
2026-04-26 16:10 61.34859 113.29682 36272 ft 446 kts 312°
2026-04-26 16:10 61.38830 113.19770 36276 ft 445 kts 311°
2026-04-26 16:11 61.42796 113.09830 36273 ft 445 kts 311°
2026-04-26 16:11 61.46725 112.99938 36275 ft 445 kts 311°
2026-04-26 16:12 61.50672 112.89957 36278 ft 445 kts 311°
2026-04-26 16:12 61.56576 112.74944 36277 ft 445 kts 311°
2026-04-26 16:13 61.60477 112.64970 36282 ft 445 kts 311°
2026-04-26 16:13 61.64394 112.54913 36280 ft 444 kts 311°
2026-04-26 16:14 61.68298 112.44841 36284 ft 444 kts 311°
2026-04-26 16:15 61.74141 112.29688 36280 ft 444 kts 311°
2026-04-26 16:15 61.77997 112.19634 36281 ft 443 kts 311°
2026-04-26 16:16 61.83799 112.04421 36284 ft 443 kts 311°
2026-04-26 16:16 61.87655 111.94253 36281 ft 442 kts 310°
2026-04-26 16:17 61.91475 111.84132 36286 ft 442 kts 310°
2026-04-26 16:17 61.95306 111.73940 36280 ft 442 kts 310°
2026-04-26 16:18 62.01042 111.58593 36290 ft 442 kts 310°
2026-04-26 16:19 62.06734 111.43261 36292 ft 442 kts 310°
2026-04-26 16:20 62.12434 111.27805 36285 ft 442 kts 310°
2026-04-26 16:20 62.18119 111.12283 36290 ft 442 kts 310°
2026-04-26 16:21 62.21875 111.01969 36295 ft 442 kts 310°
2026-04-26 16:21 62.25647 110.91567 36292 ft 442 kts 310°
2026-04-26 16:22 62.29412 110.81131 36293 ft 442 kts 310°
2026-04-26 16:22 62.33169 110.70672 36291 ft 442 kts 309°
2026-04-26 16:23 62.36916 110.60191 36295 ft 442 kts 309°
2026-04-26 16:23 62.40636 110.49741 36289 ft 442 kts 309°
2026-04-26 16:24 62.44371 110.39198 36293 ft 442 kts 309°
2026-04-26 16:24 62.48101 110.28623 36282 ft 442 kts 309°
2026-04-26 16:25 62.51819 110.18032 36289 ft 442 kts 309°
2026-04-26 16:25 62.55508 110.07475 36281 ft 442 kts 309°
2026-04-26 16:26 62.58589 109.98619 36287 ft 442 kts 309°
2026-04-26 16:26 62.62915 109.86129 36277 ft 443 kts 309°
2026-04-26 16:27 62.66606 109.75415 36287 ft 443 kts 308°
2026-04-26 16:27 62.70266 109.64740 36280 ft 443 kts 308°
2026-04-26 16:28 62.73942 109.53969 36282 ft 443 kts 308°
2026-04-26 16:28 62.77612 109.43167 36274 ft 443 kts 308°
2026-04-26 16:29 62.81276 109.32326 36279 ft 443 kts 308°
2026-04-26 16:29 62.84930 109.21470 36270 ft 443 kts 308°
2026-04-26 16:30 62.88550 109.10658 36277 ft 443 kts 308°
2026-04-26 16:30 62.92189 108.99739 36270 ft 444 kts 307°
2026-04-26 16:31 62.95824 108.88783 36270 ft 444 kts 307°
2026-04-26 16:31 62.99428 108.77862 36264 ft 444 kts 307°
2026-04-26 16:32 63.02460 108.68634 36268 ft 444 kts 307°
2026-04-26 16:32 63.06666 108.55774 36263 ft 445 kts 307°
2026-04-26 16:33 63.10272 108.44691 36271 ft 445 kts 307°
2026-04-26 16:33 63.13267 108.35441 36260 ft 445 kts 307°
2026-04-26 16:34 63.17444 108.22481 36265 ft 445 kts 306°
2026-04-26 16:34 63.21032 108.11289 36259 ft 445 kts 306°
2026-04-26 16:35 63.24610 108.00072 36261 ft 445 kts 306°
2026-04-26 16:35 63.28181 107.88822 36259 ft 446 kts 306°
2026-04-26 16:36 63.31724 107.77607 36254 ft 446 kts 306°
2026-04-26 16:36 63.35281 107.66286 36255 ft 446 kts 306°
2026-04-26 16:37 63.38826 107.54948 36254 ft 446 kts 306°
2026-04-26 16:37 63.41768 107.45499 36245 ft 446 kts 306°
2026-04-26 16:38 63.45901 107.32155 36254 ft 446 kts 305°
2026-04-26 16:38 63.49398 107.20799 36240 ft 446 kts 305°
2026-04-26 16:39 63.52347 107.11182 36237 ft 446 kts 305°
2026-04-26 16:39 63.56422 106.97832 36240 ft 447 kts 305°
2026-04-26 16:40 63.59327 106.88257 36237 ft 446 kts 305°
2026-04-26 16:40 63.62817 106.76712 36240 ft 447 kts 304°
2026-04-26 16:41 63.66867 106.63240 36243 ft 447 kts 304°
2026-04-26 16:41 63.70337 106.51625 36233 ft 447 kts 304°
2026-04-26 16:42 63.73218 106.41941 36219 ft 447 kts 304°
2026-04-26 16:42 63.77238 106.28358 36221 ft 448 kts 304°
2026-04-26 16:43 63.80688 106.16636 36245 ft 448 kts 304°
2026-04-26 16:43 63.84132 106.04873 36219 ft 448 kts 304°
2026-04-26 16:44 63.86986 105.95078 36228 ft 448 kts 304°
2026-04-26 16:44 63.90408 105.83274 36220 ft 448 kts 303°
2026-04-26 16:45 63.92657 105.75482 36003 ft 436 kts 305°
2026-04-26 16:45 63.94285 105.69813 36072 ft 421 kts 305°
2026-04-26 16:45 63.96916 105.60634 36163 ft 417 kts 305°
2026-04-26 16:46 64.00103 105.49494 36215 ft 424 kts 305°
2026-04-26 16:46 64.03331 105.38143 36212 ft 428 kts 305°
2026-04-26 16:47 64.06563 105.26711 36207 ft 429 kts 305°
2026-04-26 16:47 64.09789 105.15238 36195 ft 428 kts 304°
2026-04-26 16:48 64.12968 105.03877 36198 ft 426 kts 304°
2026-04-26 16:48 64.16144 104.92470 36199 ft 424 kts 304°
2026-04-26 16:49 64.19298 104.81088 36191 ft 422 kts 304°
2026-04-26 16:49 64.22432 104.69718 36192 ft 421 kts 304°
2026-04-26 16:50 64.25531 104.58419 36194 ft 420 kts 304°
2026-04-26 16:50 64.28639 104.47024 36189 ft 421 kts 304°
2026-04-26 16:51 64.31742 104.35594 36182 ft 421 kts 304°
2026-04-26 16:51 64.34841 104.24119 36182 ft 422 kts 303°
2026-04-26 16:52 64.37412 104.14554 36175 ft 422 kts 303°
2026-04-26 16:52 64.40999 104.01147 36171 ft 422 kts 303°
2026-04-26 16:53 64.43885 103.89296 36173 ft 424 kts 297°
2026-04-26 16:53 64.45906 103.76431 36169 ft 426 kts 291°
2026-04-26 16:54 64.47732 103.63366 36160 ft 426 kts 291°
2026-04-26 16:54 64.49560 103.50390 36156 ft 426 kts 291°
2026-04-26 16:55 64.51392 103.37324 36152 ft 426 kts 291°
2026-04-26 16:55 64.53210 103.24246 36148 ft 426 kts 290°
2026-04-26 16:56 64.55914 103.04600 36137 ft 425 kts 290°
2026-04-26 16:57 64.57690 102.91573 36136 ft 425 kts 290°
2026-04-26 16:57 64.60346 102.71892 36128 ft 425 kts 290°
2026-04-26 16:58 64.61807 102.60965 36125 ft 425 kts 290°
2026-04-26 16:59 64.64718 102.38983 36114 ft 425 kts 289°
2026-04-26 17:00 64.68154 102.12647 36099 ft 426 kts 289°
2026-04-26 17:00 64.70711 101.92768 36092 ft 426 kts 289°
2026-04-26 17:01 64.72390 101.79573 36102 ft 426 kts 289°
2026-04-26 17:01 64.74072 101.66259 36084 ft 427 kts 288°
2026-04-26 17:02 64.75745 101.52915 36082 ft 427 kts 288°
2026-04-26 17:02 64.77406 101.39530 36074 ft 428 kts 288°
2026-04-26 17:03 64.79042 101.26218 36069 ft 428 kts 288°
2026-04-26 17:03 64.80678 101.12806 36063 ft 428 kts 288°
2026-04-26 17:04 64.82305 100.99350 36055 ft 428 kts 288°
2026-04-26 17:04 64.83918 100.85892 36045 ft 428 kts 287°
2026-04-26 17:05 64.85511 100.72490 36047 ft 429 kts 287°
2026-04-26 17:05 64.87102 100.58982 36041 ft 429 kts 287°
2026-04-26 17:06 64.88683 100.45446 36026 ft 429 kts 287°
2026-04-26 17:06 64.90250 100.31905 36033 ft 429 kts 287°
2026-04-26 17:07 64.91794 100.18444 36028 ft 429 kts 287°
2026-04-26 17:07 64.93337 100.04868 36020 ft 428 kts 287°
2026-04-26 17:08 64.94866 99.91290 36020 ft 429 kts 286°
2026-04-26 17:08 64.96384 99.77684 36008 ft 429 kts 286°
2026-04-26 17:09 64.97634 99.66382 36014 ft 428 kts 286°
2026-04-26 17:09 64.99368 99.50565 36001 ft 427 kts 286°
2026-04-26 17:10 65.00842 99.36969 36010 ft 427 kts 286°
2026-04-26 17:10 65.02306 99.23353 36000 ft 426 kts 285°
2026-04-26 17:11 65.03744 99.09842 35993 ft 426 kts 285°
2026-04-26 17:11 65.05178 98.96232 35986 ft 426 kts 285°
2026-04-26 17:12 65.07308 98.75784 35980 ft 426 kts 285°
2026-04-26 17:13 65.09398 98.55417 35976 ft 425 kts 285°
2026-04-26 17:14 65.11466 98.34953 35977 ft 425 kts 285°
2026-04-26 17:14 65.13505 98.14476 35972 ft 424 kts 285°
2026-04-26 17:15 65.15504 97.94082 35972 ft 424 kts 284°
2026-04-26 17:16 65.16823 97.80456 35972 ft 423 kts 284°
2026-04-26 17:16 65.18131 97.66810 35966 ft 422 kts 284°
2026-04-26 17:17 65.19414 97.53284 35964 ft 422 kts 284°
2026-04-26 17:17 65.20692 97.39648 35962 ft 421 kts 284°
2026-04-26 17:18 65.21956 97.26028 35976 ft 421 kts 284°
2026-04-26 17:18 65.23209 97.12382 35947 ft 421 kts 284°
2026-04-26 17:19 65.25053 96.92039 35949 ft 419 kts 284°
2026-04-26 17:19 65.26268 96.78442 35963 ft 419 kts 283°
2026-04-26 17:20 65.27268 96.67135 35938 ft 419 kts 283°
2026-04-26 17:20 65.28660 96.51216 35933 ft 418 kts 283°
2026-04-26 17:21 65.29828 96.37703 35935 ft 417 kts 283°
2026-04-26 17:21 65.30990 96.24109 35928 ft 417 kts 283°
2026-04-26 17:22 65.32140 96.10493 35921 ft 418 kts 283°
2026-04-26 17:22 65.33277 95.96865 35919 ft 417 kts 282°
2026-04-26 17:23 65.34396 95.83313 35916 ft 418 kts 282°
2026-04-26 17:23 65.35512 95.69628 35911 ft 419 kts 282°
2026-04-26 17:24 65.36616 95.55934 35909 ft 418 kts 282°
2026-04-26 17:24 65.37704 95.42266 35921 ft 417 kts 282°
2026-04-26 17:25 65.38777 95.28620 35899 ft 416 kts 282°
2026-04-26 17:25 65.39836 95.14976 35903 ft 416 kts 281°
2026-04-26 17:26 65.40879 95.01394 35896 ft 416 kts 281°